When you browse on this site, cookies collect data to enhance your experience and personalize the content and advertising you see.
Visit our Privacy Policy to learn more. By continuing to use the site, you agree to this use of cookies and data.
  • In Romania
  • List of Countries
  • For 7 days
  • Water Temperature
  • Satellite Maps
  • Weather Map
  • Weather Widgets
  • user-avatar
    Login

    Hourly Weather Smolan

    Today, 21 March, Thursday

    Time Temperature Precipitation Wind Pressure Humidity
    00:00 +4°C° 0 mm 2 mps 661 mmHg 93%
    01:00 +3°C° 0 mm 2 mps 661 mmHg 93%
    02:00 +3°C° 0 mm 2 mps 661 mmHg 94%
    03:00 +2°C° 0 mm 2 mps 661 mmHg 94%
    04:00 +2°C° 0 mm 2 mps 661 mmHg 93%
    05:00 +2°C° 0 mm 2 mps 661 mmHg 93%
    06:00 +2°C° 0 mm 2 mps 661 mmHg 90%
    07:00 +3°C° 0 mm 2 mps 661 mmHg 87%
    08:00 +3°C° 0 mm 2 mps 662 mmHg 84%
    09:00 +4°C° 0 mm 2 mps 662 mmHg 78%
    10:00 +5°C° 0 mm 3 mps 663 mmHg 71%
    11:00 +7°C° 0 mm 3 mps 663 mmHg 65%
    12:00 +7°C° 0 mm 3 mps 663 mmHg 63%
    13:00 +8°C° 0 mm 3 mps 663 mmHg 62%
    14:00 +8°C° 0 mm 3 mps 663 mmHg 60%
    15:00 +8°C° 0 mm 3 mps 663 mmHg 62%
    16:00 +8°C° 0 mm 3 mps 662 mmHg 63%
    17:00 +7°C° 0 mm 2 mps 662 mmHg 65%
    18:00 +6°C° 0 mm 2 mps 662 mmHg 71%
    19:00 +5°C° 0 mm 2 mps 661 mmHg 78%
    20:00 +5°C° 0 mm 1 mps 661 mmHg 84%
    21:00 +4°C° 0 mm 1 mps 661 mmHg 86%
    22:00 +4°C° 0 mm 1 mps 662 mmHg 87%
    23:00 +4°C° 0 mm 1 mps 662 mmHg 89%

    Tomorrow, 22 March, Friday

    Time Temperature Precipitation Wind Pressure Humidity
    00:00 +3°C° 0 mm 1 mps 662 mmHg 90%
    01:00 +3°C° 0 mm 1 mps 662 mmHg 91%
    02:00 +2°C° 0 mm 1 mps 661 mmHg 93%
    03:00 +2°C° 0 mm 1 mps 661 mmHg 93%
    04:00 +1°C° 0 mm 1 mps 661 mmHg 93%
    05:00 +1°C° 0 mm 1 mps 661 mmHg 93%
    06:00 +2°C° 0 mm 1 mps 661 mmHg 89%
    07:00 +3°C° 0 mm 1 mps 662 mmHg 84%
    08:00 +4°C° 0 mm 1 mps 662 mmHg 79%
    09:00 +6°C° 0 mm 1 mps 662 mmHg 69%
    10:00 +7°C° 0 mm 2 mps 663 mmHg 59%
    11:00 +9°C° 0 mm 2 mps 663 mmHg 49%
    12:00 +9°C° 0 mm 2 mps 663 mmHg 47%
    13:00 +10°C° 0 mm 2 mps 663 mmHg 46%
    14:00 +12°C° 0 mm 2 mps 662 mmHg 44%
    15:00 +10°C° 0 mm 2 mps 662 mmHg 47%
    16:00 +9°C° 0 mm 2 mps 661 mmHg 50%
    17:00 +9°C° 0 mm 2 mps 660 mmHg 53%
    18:00 +7°C° 0 mm 2 mps 660 mmHg 60%
    19:00 +7°C° 0 mm 1 mps 660 mmHg 68%
    20:00 +5°C° 0 mm 1 mps 659 mmHg 75%
    21:00 +5°C° 0 mm 1 mps 659 mmHg 76%
    22:00 +4°C° 0 mm 1 mps 659 mmHg 76%
    23:00 +4°C° 0 mm 1 mps 659 mmHg 76%

    Day after tomorrow, 23 March, Saturday

    Time Temperature Precipitation Wind Pressure Humidity
    00:00 +4°C° 0 mm 1 mps 659 mmHg 78%
    01:00 +3°C° 0 mm 1 mps 659 mmHg 79%
    02:00 +3°C° 0 mm 1 mps 659 mmHg 81%
    03:00 +3°C° 0 mm 1 mps 659 mmHg 82%
    04:00 +3°C° 0 mm 1 mps 658 mmHg 84%
    05:00 +3°C° 0 mm 1 mps 658 mmHg 85%
    06:00 +4°C° 0 mm 1 mps 659 mmHg 81%
    07:00 +5°C° 0 mm 1 mps 659 mmHg 77%
    08:00 +6°C° 0 mm 1 mps 659 mmHg 72%
    09:00 +8°C° 0 mm 1 mps 660 mmHg 66%
    10:00 +8°C° 0 mm 2 mps 660 mmHg 59%
    11:00 +10°C° 0 mm 2 mps 661 mmHg 53%
    12:00 +12°C° 0 mm 2 mps 660 mmHg 50%
    13:00 +12°C° 0 mm 2 mps 660 mmHg 46%
    14:00 +13°C° 0 mm 2 mps 660 mmHg 43%
    15:00 +12°C° 0 mm 2 mps 659 mmHg 45%
    16:00 +12°C° 0 mm 2 mps 659 mmHg 47%
    17:00 +10°C° 0 mm 2 mps 658 mmHg 49%
    18:00 +9°C° 0 mm 1 mps 658 mmHg 58%
    19:00 +7°C° 0 mm 1 mps 658 mmHg 68%
    20:00 +4°C° 0 mm 0 mps 657 mmHg 77%
    21:00 +4°C° 0 mm 0 mps 657 mmHg 78%
    22:00 +3°C° 0 mm 0 mps 657 mmHg 80%
    23:00 +3°C° 0 mm 0 mps 658 mmHg 82%

    24 March, Sunday

    Time Temperature Precipitation Wind Pressure Humidity
    00:00 +3°C° 0 mm 0 mps 657 mmHg 83%
    01:00 +3°C° 0 mm 1 mps 657 mmHg 84%
    02:00 +3°C° 0 mm 1 mps 657 mmHg 86%
    03:00 +2°C° 0 mm 1 mps 657 mmHg 86%
    04:00 +2°C° 0 mm 1 mps 657 mmHg 87%
    05:00 +2°C° 0 mm 1 mps 657 mmHg 87%
    06:00 +3°C° 0 mm 1 mps 657 mmHg 82%
    07:00 +4°C° 0 mm 1 mps 658 mmHg 77%
    08:00 +5°C° 0 mm 1 mps 658 mmHg 71%
    09:00 +6°C° 0 mm 2 mps 659 mmHg 63%
    10:00 +7°C° 0 mm 2 mps 659 mmHg 55%
    11:00 +9°C° 0 mm 3 mps 660 mmHg 47%
    12:00 +10°C° 0 mm 3 mps 660 mmHg 44%
    13:00 +10°C° 0 mm 3 mps 660 mmHg 42%
    14:00 +11°C° 0 mm 3 mps 659 mmHg 40%
    15:00 +12°C° 0 mm 2 mps 659 mmHg 43%
    16:00 +10°C° 0 mm 2 mps 659 mmHg 46%
    17:00 +10°C° 0 mm 2 mps 658 mmHg 49%
    18:00 +9°C° 0 mm 1 mps 658 mmHg 59%
    19:00 +6°C° 0 mm 0 mps 657 mmHg 69%
    20:00 +4°C° 0 mm 0 mps 657 mmHg 79%
    21:00 +4°C° 0 mm 0 mps 657 mmHg 81%
    22:00 +3°C° 0 mm 0 mps 657 mmHg 83%
    23:00 +4°C° 0 mm 1 mps 657 mmHg 85%

    25 March, Monday

    Time Temperature Precipitation Wind Pressure Humidity
    00:00 +4°C° 0 mm 1 mps 656 mmHg 87%
    01:00 +4°C° 0 mm 1 mps 656 mmHg 88%
    02:00 +3°C° 0 mm 1 mps 656 mmHg 90%
    03:00 +3°C° 0 mm 1 mps 656 mmHg 90%
    04:00 +3°C° 0 mm 1 mps 655 mmHg 91%
    05:00 +3°C° 0 mm 1 mps 655 mmHg 92%
    06:00 +4°C° 0 mm 1 mps 655 mmHg 87%
    07:00 +6°C° 0 mm 1 mps 656 mmHg 82%
    08:00 +7°C° 0 mm 1 mps 656 mmHg 77%
    09:00 +9°C° 0 mm 1 mps 656 mmHg 69%
    10:00 +11°C° 0 mm 1 mps 657 mmHg 61%
    11:00 +13°C° 0 mm 1 mps 657 mmHg 53%
    12:00 +14°C° 0 mm 1 mps 657 mmHg 52%
    13:00 +14°C° 0 mm 2 mps 656 mmHg 51%
    14:00 +14°C° 0 mm 2 mps 656 mmHg 51%
    15:00 +13°C° 0.1 mm 2 mps 655 mmHg 56%
    16:00 +12°C° 0.1 mm 1 mps 654 mmHg 61%
    17:00 +11°C° 0.1 mm 1 mps 653 mmHg 66%
    18:00 +10°C° 0 mm 1 mps 653 mmHg 72%
    19:00 +9°C° 0 mm 1 mps 652 mmHg 79%
    20:00 +7°C° 0 mm 1 mps 652 mmHg 86%
    21:00 +7°C° 0 mm 1 mps 652 mmHg 86%
    22:00 +7°C° 0 mm 1 mps 652 mmHg 86%
    23:00 +6°C° 0 mm 1 mps 652 mmHg 86%

    26 March, Tuesday

    Time Temperature Precipitation Wind Pressure Humidity
    00:00 +6°C° 0 mm 1 mps 651 mmHg 83%
    01:00 +6°C° 0 mm 1 mps 651 mmHg 80%
    02:00 +6°C° 0 mm 1 mps 651 mmHg 77%
    03:00 +6°C° 0 mm 1 mps 651 mmHg 75%
    04:00 +6°C° 0 mm 1 mps 651 mmHg 73%
    05:00 +6°C° 0 mm 1 mps 651 mmHg 71%
    06:00 +7°C° 0.1 mm 1 mps 651 mmHg 71%
    07:00 +7°C° 0.1 mm 1 mps 651 mmHg 71%
    08:00 +7°C° 0.1 mm 0 mps 651 mmHg 71%
    09:00 +8°C° 0.9 mm 1 mps 651 mmHg 73%
    10:00 +8°C° 0.9 mm 1 mps 652 mmHg 75%
    11:00 +9°C° 0.9 mm 1 mps 652 mmHg 76%
    12:00 +8°C° 2.7 mm 1 mps 651 mmHg 81%
    13:00 +6°C° 2.7 mm 1 mps 650 mmHg 85%
    14:00 +4°C° 2.7 mm 2 mps 650 mmHg 90%
    15:00 +4°C° 0.9 mm 2 mps 649 mmHg 89%
    16:00 +4°C° 0.9 mm 2 mps 649 mmHg 87%
    17:00 +4°C° 0.9 mm 2 mps 649 mmHg 86%
    18:00 +3°C° 0.2 mm 2 mps 650 mmHg 86%
    19:00 +2°C° 0.2 mm 2 mps 650 mmHg 86%
    20:00 +1°C° 0.2 mm 2 mps 650 mmHg 86%
    21:00 0°C° 0.3 mm 3 mps 650 mmHg 85%
    22:00 -1°C° 0.3 mm 3 mps 650 mmHg 83%
    23:00 -2°C° 0.3 mm 3 mps 650 mmHg 82%
    Show more